Hourly Data Report for August 18, 2013

All times are specified in Local Standard Time (LST). Add 1 hour to adjust for Daylight Saving Time where and when it is observed.

VICTORIA INTL A
BRITISH COLUMBIA

48°38'50.000" N
123°25'33.000" W
19.50 m
1018621
71799
YYJ

Download Data

Hourly Data (August 2013)
Hourly Data Report for August 18, 2013
Temp Definition
°C
Dew Point Temp Definition
°C
Rel Hum Definition
%
Wind Dir Definition
10's deg

Wind Spd Definition
km/h
Visibility Definition
km
Stn Press Definition
kPa
Hmdx Definition


Wind Chill Definition


Weather Definition


TIME
00:00 Legend Double Dagger 13.9 10.4 79 21 5 32.2 101.59     LegendNANA
01:00 Legend Double Dagger 13.1 10.5 84 14 3 32.2 101.57     Mainly Clear
02:00 Legend Double Dagger 12.6 10.2 85 8 3 32.2 101.58     LegendNANA
03:00 Legend Double Dagger 12.8 10.7 87 13 4 32.2 101.59     LegendNANA
04:00 Legend Double Dagger 12.1 10.5 90 7 2 32.2 101.59     Mainly Clear
05:00 Legend Double Dagger 12.4 10.7 89 22 1 32.2 101.61     LegendNANA
06:00 Legend Double Dagger 13.5 11.4 87 9 5 32.2 101.64     LegendNANA
07:00 Legend Double Dagger 15.6 12.0 79 14 15 32.2 101.64     Mostly Cloudy
08:00 Legend Double Dagger 14.8 12.0 83 13 11 48.3 101.68     LegendNANA
09:00 Legend Double Dagger 17.6 12.6 72 9 12 48.3 101.69     LegendNANA
10:00 Legend Double Dagger 18.6 12.7 68 14 19 48.3 101.70     Mostly Cloudy
11:00 Legend Double Dagger 18.4 12.9 70 14 23 48.3 101.70     LegendNANA
12:00 Legend Double Dagger 18.6 13.7 73 14 24 48.3 101.71     LegendNANA
13:00 Legend Double Dagger 17.7 13.3 75 13 13 48.3 101.75     Mostly Cloudy
14:00 Legend Double Dagger 18.3 13.2 72 13 12 48.3 101.76     LegendNANA
15:00 Legend Double Dagger 23.3 11.2 46 24 14 48.3 101.70 25   LegendNANA
16:00 Legend Double Dagger 23.1 10.0 43 27 12 48.3 101.66     Mostly Cloudy
17:00 Legend Double Dagger 22.7 10.0 44 29 10 48.3 101.64     LegendNANA
18:00 Legend Double Dagger 20.1 10.9 55 10 4 48.3 101.59     LegendNANA
19:00 Legend Double Dagger 15.9 10.7 71 14 7 48.3 101.59     Mostly Cloudy
20:00 Legend Double Dagger 15.1 10.1 72 10 2 48.3 101.62     LegendNANA
21:00 Legend Double Dagger 13.6 10.1 79 20 2 48.3 101.64     LegendNANA
22:00 Legend Double Dagger 13.1 9.9 81 24 7 48.3 101.63     Mainly Clear
23:00 Legend Double Dagger 12.5 9.7 83 14 3 48.3 101.61     LegendNANA

Notes on Data Quality.

Legend

  • E = Estimated
  • M = Missing
  • NA = Not Available
  • ‡ = Partner data that is not subject to review by the National Climate Archives
Date modified: